マクノート彗星

220P/McNaught (2020)

English version
Home page
Updated on May 3, 2020

---------------------------------------------------------------------

・ プロフィール

・ 軌道要素

Epoch 2020 Dec. 17.0 TT = JDT 2459200.5
T 2020 Dec. 10.62883 TT                                 Rudenko
q   1.5523514            (2000.0)            P               Q
n   0.17917736     Peri.  180.53126     +0.87145366     +0.48538757
a   3.1161185      Node   150.10217     -0.44948152     +0.84783692
e   0.5018317      Incl.    8.12869     -0.19630305     +0.21347475
P   5.50
From 391 observations 2004 May 20-2020 Apr. 28, mean residual 0".7.

・ 光度変化

        m1 = 14.0 + 5 logΔ + 15.0 log r

---------------------------------------------------------------------

軌道要素はM.P.E.C. 2020-H235に掲載されたものです。
光度グラフはComet for Windowsで作成したものです。

---------------------------------------------------------------------

Copyright(C) Seiichi Yoshida (comet@aerith.net). All rights reserved.